Location: M?digepalle
(16.1753°N, 80.3496°E)
Time: 09:09:15
(UTC+00:00)

Cosmos 2058 Rocket - Pass Details

Date: 29 October 2020
Orbit: 610 x 639 km, 82.5° (Epoch: 27 November)

Event Time Altitude Azimuth Distance (km) Brightness Sun altitude
Rises 23:40:23 0° 0° (N) 2,913 6.4 -13.7°
Reaches altitude 10° 23:42:39 10° 4° (N) 2,000 5.6 -13.1°
Maximum altitude 23:47:02 62° 85° (E) 700 3.6 -12.1°
Drops below altitude 10° 23:51:22 10° 166° (SSE) 1,978 6.0 -11.1°
Sets 23:53:36 0° 169° (S) 2,878 6.8 -10.6°
